Simultaneous Nadir Overpasses (SNOs) Predictions

Prediction of SNOs between NOAA-20 and NOAA-19 Satellite Orbit:

Table of predicted SNOs for the next 14.0 days since TLE Epoch: 12/24/2022
Index Date (NOAA-20) Time (NOAA-20) Lat,Lon (NOAA-20) SZA (NOAA-20 ) Date (NOAA-19) Time (NOAA-19) Lat,Lon (NOAA-19) SZA (NOAA-19 ) Distance(km) Time Diff (sec)
1 12/24/2022 07:12:10 -75.99,-124.59 80.15 12/24/2022 07:10:57 -75.97,-124.55 80.15 1.77 73
2 12/24/2022 08:02:56 75.99, 42.71 99.86 12/24/2022 08:01:50 76.00, 42.82 99.88 3.34 66
3 12/24/2022 08:53:40 -75.99,-149.97 80.15 12/24/2022 08:52:56 -76.00,-149.96 80.13 1.15 44
4 12/24/2022 09:44:26 75.99, 17.32 99.86 12/24/2022 09:43:50 75.98, 17.26 99.86 2.31 36
5 12/24/2022 10:35:10 -75.99,-175.35 80.15 12/24/2022 10:34:55 -76.02,-175.36 80.11 3.53 15
6 12/24/2022 11:25:56 76.00, -8.06 99.86 12/24/2022 11:25:49 76.01, -8.15 99.88 2.64 7
7 12/24/2022 12:16:41 -76.04, 159.11 80.09 12/24/2022 12:16:54 -76.05, 159.23 80.09 3.52 13
8 12/24/2022 13:07:27 76.04, -33.60 99.92 12/24/2022 13:07:48 76.03, -33.56 99.90 2.00 21
9 12/24/2022 13:58:11 -76.04, 133.72 80.09 12/24/2022 13:58:54 -76.03, 133.67 80.11 2.20 43
10 12/24/2022 14:48:57 76.05, -58.98 99.92 12/24/2022 14:49:47 76.05, -58.96 99.91 1.01 50
11 12/24/2022 15:39:40 -76.04, 108.34 80.09 12/24/2022 15:40:52 -76.05, 108.26 80.09 2.35 72
12 12/24/2022 16:30:31 76.28, -85.16 100.20 12/24/2022 16:31:42 76.21, -83.87 100.03 35.03 71



Historial Predications of SNOs between NOAA-20 and NOAA-19
